Home   Weather   Coeur d'Alene   Past weeks

Flag for USA Past Weather in Coeur d'Alene, Idaho, USA — Yesterday and Last 2 Weeks

Now
38 °F

Light rain. Mostly cloudy.


Feels Like: 27 °F
Forecast: 22 / 38 °F
Wind: 23 mph from Southwest

Location: Coeur d'Alene Weather Reporting System

Current Time: Dec 4, 2016 at 6:35:57 am

Latest Report: Dec 4, 2016 at 5:56 am


Visibility: 10 mi

Pressure: 29.85 "Hg (27.53 "Hg at 655m altitude)

Humidity: 83%

Dew Point: 33 °F

Location of Coeur d'AleneLocation

Past Weather in Coeur d'Alene — Graph

°F

Coeur d'Alene Temperature Yesterday

Maximum temperature yesterday: 42 °F (at 12:56 pm)
Minimum temperature yesterday: 34 °F (at 12:56 am)
Average temperature yesterday: 37 °F

High & Low Weather Summary for the Past Weeks

 TemperatureHumidityPressure
High49 °F (Nov 26, 12:56 pm)100% (Nov 20, 6:56 am)30.45 "Hg (Nov 20, 6:56 am)
Low26 °F (Dec 2, 3:56 am)46% (Nov 24, 9:56 pm)29.54 "Hg (Nov 26, 11:56 pm)
Average37 °F88%30.04 "Hg
* Reported Nov 19 4:56 am — Dec 4 4:56 am, Coeur d'Alene, Weather by CustomWeather, © 2016

Note: Actual official high and low records may vary slightly from our data, if they occured in-between our weather recording intervals... More about our weather records

Advertising

Coeur d'Alene Weather History for the Previous 24 Hours

Scroll right to see more
 ConditionsComfort  
Time TempWeatherWind HumidityBarometerVisibility
4:56 am
Sun, Dec 4
38 °FLight rain. Mostly cloudy.16 mph83%29.88 "Hg10 mi
3:56 am38 °FLight rain. Mostly cloudy.13 mph83%29.91 "Hg10 mi
2:56 am38 °FMostly cloudy.No wind79%29.94 "Hg10 mi
1:56 am38 °FOvercast.5 mph79%29.97 "Hg10 mi
12:56 am38 °FLight rain. Overcast.3 mph79%30.01 "Hg10 mi
11:56 pm
Sat, Dec 3
38 °FMostly cloudy.10 mph79%30.05 "Hg10 mi
10:56 pm38 °FOvercast.14 mph79%30.09 "Hg10 mi
9:56 pm38 °FMostly cloudy.13 mph79%30.11 "Hg10 mi
8:56 pm38 °FMostly cloudy.16 mph83%30.12 "Hg10 mi
7:56 pm37 °FOvercast.3 mph86%30.15 "Hg10 mi
6:56 pm37 °FPassing clouds.7 mph82%30.17 "Hg10 mi
5:56 pm38 °FPassing clouds.No wind79%30.19 "Hg10 mi
4:56 pm39 °FOvercast.7 mph76%30.21 "Hg10 mi
3:56 pm39 °FOvercast.8 mph79%30.22 "Hg10 mi
2:56 pm40 °FScattered clouds.12 mph77%30.21 "Hg10 mi
1:56 pm41 °FPartly sunny.14 mph74%30.22 "Hg10 mi
12:56 pm42 °FScattered clouds.16 mph73%30.22 "Hg10 mi
11:56 am41 °FMostly cloudy.9 mph74%30.23 "Hg10 mi
10:56 am40 °FPartly sunny.9 mph80%30.24 "Hg10 mi
9:56 am38 °FPartly sunny.5 mph86%30.26 "Hg10 mi
8:56 am36 °FPartly sunny.9 mph97%30.25 "Hg10 mi
7:56 am35 °FOvercast.8 mph96%30.23 "Hg10 mi
6:56 am35 °FLow clouds.9 mph96%30.21 "Hg10 mi
Weather by CustomWeather, © 2016

See weather overviewHow to use our weather pages